User: anonymous   Login
Location: Champaign/Urbana Astronomical Society Observatory
(40.0333°N, 88.2833°W)
Time: 19:45:08
(UTC-05:00)
Language:

XW-2D - Orbit

View from above orbital plane
View from above orbital plane
View from above satellite
View from above satellite

Ground track
Ground track

The orbit data is extracted from the following two-line orbital elements,

1 40907U 15049J   19288.53254966  .00000794  00000-0  44738-4 0  9997
2 40907  97.4696 288.3540 0015035 138.8460 339.2223 15.15979861225013
Epoch (UTC): 15 October 2019 12:46:52
Eccentricity: 0.0015035
inclination: 97.4696°
perigee height: 507 km
apogee height: 528 km
right ascension of ascending node: 288.3540°
argument of perigee: 138.8460°
revolutions per day: 15.15979861
mean anomaly at epoch: 339.2223°
orbit number at epoch: 22501

The dashed part of the orbit path shows where the satellite is in the earth's shadow,  

DLR